Satellite-Ground Cal/Val Site Overpasses Predictions

Prediction of Satellite NPP Overpassing Cal/Val Site: Antarctic Dome C

Ground Cal/Val Site Location: Latitude: -75.10, Longitude: 123.35; Satellite-Ground Site NADIR distance within 100 km.

Table of predicted overpasses for the next 14.0 days since TLE Epoch: 12/31/2021
Interval Starting Time Ending Time Minimum Distance Time Minimum Distance (km)
1 12/31/2021 15:02:07 12/31/2021 15:02:31 12/31/2021 15:02:19 59.34
2 01/01/2022 14:43:16 01/01/2022 14:43:41 01/01/2022 14:43:28 50.08
3 01/02/2022 07:44:57 01/02/2022 07:45:16 01/02/2022 07:45:07 74.27
4 01/03/2022 07:26:02 01/03/2022 07:26:29 01/03/2022 07:26:15 33.76
5 01/05/2022 15:08:26 01/05/2022 15:08:33 01/05/2022 15:08:29 96.61
6 01/06/2022 14:49:24 01/06/2022 14:49:53 01/06/2022 14:49:38 15.01
7 01/08/2022 07:32:11 01/08/2022 07:32:40 01/08/2022 07:32:26 3.95
8 01/11/2022 14:55:33 01/11/2022 14:56:02 01/11/2022 14:55:47 21.19
9 01/12/2022 14:36:50 01/12/2022 14:37:04 01/12/2022 14:36:57 86.03
10 01/13/2022 07:38:22 01/13/2022 07:38:49 01/13/2022 07:38:35 37.98
